Volver al catálogo

DELTA 1 DEB

ActivoLEO
NORAD 10746·DEBRIS·🇺🇸 United States

Lanzado Jul 29, 1976 desde Vandenberg Space Force Base

Loading…

Próximos Pases (próximas 24 horas)

TLE

ActualizadoSource: Space-Track

Época: Sep 14, 2026, 04:08 UTC

1 10746U 76077AT  26257.17248762  .00000781  00000-0  16488-2 0  9999
2 10746 101.8918 133.9044 0270512 114.6812  35.1390 13.22483776364885

Sigue DELTA 1 DEB en tiempo real con AllMySat

Download on the App Store